| time (UTC) | temp F | wind direction | speed MPH | gust MPH | rain 1hr in | rain 24hr in | rain mn in | humidity % | barometer mb |
| 20260507040109 | 57 | 321 | 0.0 | 1.0 | 0.00 | 0.00 | 0.21 | 98 | 1015.1 |
| 20260507035110 | 57 | 313 | 1.0 | 1.0 | 0.05 | 0.00 | 0.21 | 97 | 1015.0 |
| 20260507034109 | 57 | 319 | 1.0 | 1.0 | 0.00 | 0.00 | 0.20 | 97 | 1015.0 |
| 20260507033112 | 57 | 0 | 0.0 | 0.0 | 0.00 | 0.00 | 0.20 | 98 | 1014.5 |
| 20260507032111 | 58 | 317 | 0.0 | 0.0 | 0.00 | 0.00 | 0.20 | 99 | 1014.4 |
| 20260507031110 | 58 | 332 | 2.0 | 2.0 | 0.00 | 0.00 | 0.20 | 99 | 1014.1 |
| 20260507030110 | 59 | 321 | 1.0 | 1.0 | 0.00 | 0.00 | 0.20 | 99 | 1013.9 |
| 20260507025109 | 59 | 326 | 0.0 | 0.0 | 0.00 | 0.00 | 0.20 | 99 | 1014.1 |
| 20260507024109 | 59 | 316 | 0.0 | 0.0 | 0.07 | 0.00 | 0.20 | 99 | 1014.0 |
| 20260507023110 | 59 | 345 | 0.0 | 1.0 | 0.00 | 0.00 | 0.19 | 99 | 1014.4 |
| 20260507022109 | 59 | 320 | 0.0 | 1.0 | 0.00 | 0.00 | 0.19 | 99 | 1014.0 |
| 20260507021109 | 59 | 323 | 0.0 | 0.0 | 0.00 | 0.00 | 0.19 | 99 | 1013.7 |
| 20260507020110 | 59 | 326 | 0.0 | 0.0 | 0.00 | 0.00 | 0.19 | 99 | 1013.6 |
| 20260507015110 | 59 | 321 | 0.0 | 0.0 | 0.00 | 0.00 | 0.19 | 99 | 1013.8 |
| 20260507014110 | 59 | 326 | 0.0 | 0.0 | 0.00 | 0.00 | 0.19 | 99 | 1013.9 |
| 20260507013110 | 59 | 331 | 0.0 | 0.0 | 0.00 | 0.00 | 0.19 | 99 | 1013.9 |
| 20260507012109 | 59 | 330 | 0.0 | 0.0 | 0.00 | 0.00 | 0.19 | 99 | 1013.8 |
| 20260507011110 | 59 | 322 | 0.0 | 0.0 | 0.00 | 0.00 | 0.19 | 99 | 1013.7 |
| 20260507010110 | 59 | 325 | 0.0 | 0.0 | 0.00 | 0.00 | 0.19 | 99 | 1014.1 |
| 20260507005110 | 59 | 322 | 0.0 | 0.0 | 0.00 | 0.00 | 0.19 | 99 | 1013.9 |
| 20260507004110 | 59 | 323 | 0.0 | 0.0 | 0.00 | 0.00 | 0.19 | 99 | 1013.8 |
| 20260507003110 | 59 | 350 | 0.0 | 1.0 | 0.00 | 0.00 | 0.19 | 99 | 1013.7 |
| 20260507002110 | 59 | 318 | 0.0 | 1.0 | 0.00 | 0.00 | 0.19 | 99 | 1013.7 |
| 20260507001111 | 59 | 299 | 1.0 | 1.0 | 0.00 | 0.00 | 0.19 | 99 | 1013.6 |
| 20260507000109 | 59 | 328 | 0.0 | 0.0 | 0.00 | 0.00 | 0.19 | 99 | 1013.7 |
| 20260506235111 | 59 | 323 | 0.0 | 0.0 | 0.00 | 0.00 | 0.19 | 99 | 1013.6 |
| 20260506234110 | 59 | 324 | 0.0 | 0.0 | 0.00 | 0.00 | 0.19 | 99 | 1013.7 |
| 20260506233110 | 59 | 347 | 1.0 | 1.0 | 0.00 | 0.00 | 0.19 | 99 | 1013.4 |
| 20260506232108 | 59 | 325 | 0.0 | 0.0 | 0.00 | 0.00 | 0.19 | 99 | 1013.4 |
| 20260506231110 | 59 | 322 | 0.0 | 0.0 | 0.05 | 0.00 | 0.19 | 99 | 1013.3 |
| 20260506230111 | 59 | 314 | 0.0 | 0.0 | 0.19 | 0.00 | 0.18 | 99 | 1013.6 |
| 20260506225110 | 59 | 310 | 0.0 | 0.0 | 0.00 | 0.00 | 0.15 | 99 | 1013.5 |
| 20260506224110 | 59 | 328 | 0.0 | 0.0 | 0.05 | 0.00 | 0.15 | 99 | 1013.6 |
| 20260506223109 | 59 | 323 | 0.0 | 0.0 | 0.07 | 0.00 | 0.00 | 98 | 1013.6 |
| 20260506222109 | 59 | 325 | 0.0 | 0.0 | 0.07 | 0.00 | 0.13 | 98 | 1013.8 |
| 20260506221109 | 59 | 328 | 1.0 | 1.0 | 0.12 | 0.00 | 0.12 | 98 | 1014.1 |
| 20260506220110 | 60 | 316 | 0.0 | 0.0 | 0.12 | 0.00 | 0.10 | 97 | 1013.8 |
| 20260506215110 | 60 | 322 | 0.0 | 0.0 | 0.05 | 0.00 | 0.08 | 96 | 1013.9 |
| 20260506214111 | 60 | 303 | 2.0 | 2.0 | 0.00 | 0.00 | 0.00 | 96 | 1014.0 |
| 20260506213110 | 60 | 341 | 0.0 | 0.0 | 0.00 | 0.00 | 0.00 | 96 | 1014.1 |
| 20260506212110 | 60 | 313 | 0.0 | 0.0 | 0.00 | 0.00 | 0.00 | 96 | 1014.3 |
| 20260506211111 | 60 | 333 | 1.0 | 1.0 | 0.00 | 0.00 | 0.00 | 96 | 1014.3 |
| 20260506210110 | 60 | 326 | 0.0 | 0.0 | 0.00 | 0.00 | 0.00 | 96 | 1014.2 |
| 20260506205116 | 60 | 308 | 0.0 | 1.0 | 0.07 | 0.00 | 0.00 | 96 | 1014.6 |
| 20260506204109 | 60 | 317 | 0.0 | 0.0 | 0.07 | 0.00 | 0.00 | 96 | 1014.5 |
| 20260506203110 | 61 | 325 | 1.0 | 1.0 | 0.00 | 0.00 | 0.06 | 95 | 1014.6 |
| 20260506202109 | 61 | 323 | 0.0 | 0.0 | 0.05 | 0.00 | 0.06 | 95 | 1014.4 |
| 20260506201109 | 62 | 330 | 0.0 | 0.0 | 0.07 | 0.00 | 0.05 | 94 | 1014.6 |
| 20260506200110 | 62 | 319 | 0.0 | 0.0 | 0.00 | 0.00 | 0.04 | 93 | 1014.6 |
| 20260506195109 | 62 | 333 | 0.0 | 1.0 | 0.00 | 0.00 | 0.04 | 92 | 1014.8 |
| 20260506194111 | 63 | 325 | 0.0 | 0.0 | 0.05 | 0.00 | 0.04 | 93 | 1014.9 |
| 20260506193109 | 63 | 331 | 0.0 | 0.0 | 0.00 | 0.00 | 0.03 | 93 | 1014.7 |
| 20260506192110 | 63 | 328 | 0.0 | 0.0 | 0.07 | 0.00 | 0.03 | 92 | 1014.8 |
| 20260506191110 | 63 | 320 | 0.0 | 0.0 | 0.07 | 0.00 | 0.03 | 91 | 1014.8 |
| 20260506190111 | 64 | 329 | 0.0 | 1.0 | 0.07 | 0.00 | 0.02 | 88 | 1014.6 |
| 20260506185109 | 65 | 316 | 0.0 | 0.0 | 0.05 | 0.00 | 0.01 | 85 | 1014.7 |
| 20260506184110 | 66 | 323 | 1.0 | 1.0 | 0.00 | 0.00 | 0.00 | 79 | 1015.0 |
| 20260506183110 | 67 | 314 | 0.0 | 1.0 | 0.00 | 0.00 | 0.00 | 76 | 1015.2 |
| 20260506182109 | 68 | 308 | 1.0 | 2.0 | 0.00 | 0.00 | 0.00 | 71 | 1015.0 |
| 20260506181110 | 70 | 331 | 0.0 | 0.0 | 0.00 | 0.00 | 0.00 | 65 | 1015.2 |
| 20260506180110 | 70 | 331 | 2.0 | 2.0 | 0.00 | 0.00 | 0.00 | 63 | 1014.9 |
| 20260506175111 | 71 | 286 | 2.0 | 4.0 | 0.00 | 0.00 | 0.00 | 62 | 1015.2 |
| 20260506174110 | 72 | 264 | 2.0 | 2.0 | 0.00 | 0.00 | 0.00 | 58 | 1015.0 |
| 20260506173110 | 73 | 250 | 3.0 | 4.0 | 0.00 | 0.00 | 0.00 | 55 | 1014.8 |
| 20260506172109 | 74 | 288 | 1.0 | 2.0 | 0.00 | 0.00 | 0.00 | 54 | 1014.7 |
| 20260506171110 | 75 | 21 | 0.0 | 1.0 | 0.00 | 0.00 | 0.00 | 54 | 1015.0 |
| 20260506170110 | 75 | 45 | 1.0 | 2.0 | 0.00 | 0.00 | 0.00 | 55 | 1015.1 |
| 20260506165110 | 74 | 290 | 4.0 | 4.0 | 0.00 | 0.00 | 0.00 | 58 | 1015.3 |
| 20260506164109 | 73 | 345 | 1.0 | 1.0 | 0.00 | 0.00 | 0.00 | 58 | 1015.6 |
| 20260506163109 | 72 | 291 | 1.0 | 2.0 | 0.00 | 0.00 | 0.00 | 59 | 1015.3 |
| 20260506162111 | 72 | 314 | 2.0 | 2.0 | 0.00 | 0.00 | 0.00 | 60 | 1015.8 |
| 20260506161110 | 73 | 327 | 0.0 | 1.0 | 0.00 | 0.00 | 0.00 | 60 | 1015.8 |
| 20260506160110 | 72 | 323 | 0.0 | 0.0 | 0.00 | 0.00 | 0.00 | 59 | 1016.2 |
| 20260506155109 | 71 | 302 | 3.0 | 3.0 | 0.00 | 0.00 | 0.00 | 61 | 1016.4 |
| 20260506154109 | 71 | 296 | 1.0 | 2.0 | 0.00 | 0.00 | 0.00 | 62 | 1016.4 |
| 20260506153109 | 71 | 355 | 0.0 | 0.0 | 0.00 | 0.00 | 0.00 | 63 | 1016.4 |
| 20260506152110 | 71 | 145 | 2.0 | 3.0 | 0.00 | 0.00 | 0.00 | 63 | 1016.7 |
| 20260506151111 | 71 | 285 | 1.0 | 1.0 | 0.00 | 0.00 | 0.00 | 63 | 1017.0 |
| 20260506150110 | 71 | 276 | 4.0 | 7.0 | 0.00 | 0.00 | 0.00 | 62 | 1017.1 |
| 20260506145110 | 72 | 323 | 1.0 | 1.0 | 0.00 | 0.00 | 0.00 | 61 | 1017.0 |
| 20260506144109 | 71 | 353 | 0.0 | 1.0 | 0.00 | 0.00 | 0.00 | 63 | 1017.2 |
| 20260506143109 | 70 | 297 | 1.0 | 2.0 | 0.00 | 0.00 | 0.00 | 64 | 1017.2 |
| 20260506142111 | 72 | 318 | 0.0 | 0.0 | 0.00 | 0.00 | 0.00 | 62 | 1017.0 |
| 20260506141110 | 72 | 44 | 1.0 | 1.0 | 0.00 | 0.00 | 0.00 | 62 | 1016.5 |
| 20260506140110 | 71 | 293 | 4.0 | 7.0 | 0.00 | 0.00 | 0.00 | 65 | 1016.8 |
| 20260506135110 | 71 | 323 | 1.0 | 1.0 | 0.00 | 0.00 | 0.00 | 64 | 1017.0 |
| 20260506134110 | 71 | 285 | 1.0 | 2.0 | 0.00 | 0.00 | 0.00 | 65 | 1017.1 |
| 20260506133110 | 70 | 300 | 1.0 | 1.0 | 0.00 | 0.00 | 0.00 | 66 | 1017.2 |
| 20260506132109 | 69 | 227 | 0.0 | 1.0 | 0.00 | 0.00 | 0.00 | 68 | 1017.4 |
| 20260506131110 | 67 | 296 | 2.0 | 2.0 | 0.00 | 0.00 | 0.00 | 71 | 1017.5 |
| 20260506130110 | 67 | 315 | 0.0 | 0.0 | 0.00 | 0.00 | 0.00 | 72 | 1017.5 |
| 20260506125111 | 67 | 177 | 1.0 | 2.0 | 0.00 | 0.00 | 0.00 | 73 | 1017.5 |
| 20260506124110 | 67 | 311 | 1.0 | 1.0 | 0.00 | 0.00 | 0.00 | 72 | 1017.4 |
| 20260506123110 | 66 | 314 | 0.0 | 0.0 | 0.00 | 0.00 | 0.00 | 73 | 1017.2 |
| 20260506122110 | 64 | 237 | 1.0 | 2.0 | 0.00 | 0.00 | 0.00 | 75 | 1017.4 |
| 20260506121110 | 64 | 321 | 1.0 | 1.0 | 0.00 | 0.00 | 0.00 | 76 | 1017.7 |
| 20260506120110 | 66 | 344 | 2.0 | 3.0 | 0.00 | 0.00 | 0.00 | 73 | 1017.4 |
| 20260506115111 | 63 | 321 | 0.0 | 0.0 | 0.00 | 0.00 | 0.00 | 77 | 1017.7 |
| 20260506114109 | 62 | 329 | 0.0 | 0.0 | 0.00 | 0.00 | 0.00 | 80 | 1017.8 |
| 20260506113110 | 62 | 285 | 0.0 | 0.0 | 0.00 | 0.00 | 0.00 | 79 | 1017.8 |
| 20260506112110 | 62 | 326 | 0.0 | 0.0 | 0.00 | 0.00 | 0.00 | 80 | 1017.8 |
| 20260506111111 | 61 | 326 | 1.0 | 1.0 | 0.00 | 0.00 | 0.00 | 80 | 1018.0 |
| 20260506110110 | 62 | 12 | 1.0 | 1.0 | 0.00 | 0.00 | 0.00 | 79 | 1017.7 |
| 20260506105108 | 61 | 329 | 0.0 | 0.0 | 0.00 | 0.00 | 0.00 | 80 | 1017.8 |
| 20260506104110 | 61 | 269 | 0.0 | 0.0 | 0.00 | 0.00 | 0.00 | 81 | 1017.9 |
| 20260506103111 | 59 | 304 | 0.0 | 1.0 | 0.00 | 0.00 | 0.00 | 84 | 1017.9 |
| 20260506102109 | 59 | 323 | 0.0 | 0.0 | 0.00 | 0.00 | 0.00 | 84 | 1017.9 |
| 20260506101108 | 59 | 355 | 0.0 | 0.0 | 0.00 | 0.00 | 0.00 | 84 | 1017.8 |
| 20260506100110 | 59 | 320 | 0.0 | 0.0 | 0.00 | 0.00 | 0.00 | 84 | 1017.7 |
| 20260506095110 | 59 | 319 | 0.0 | 0.0 | 0.00 | 0.00 | 0.00 | 84 | 1017.6 |
| 20260506094110 | 59 | 336 | 0.0 | 1.0 | 0.00 | 0.00 | 0.00 | 83 | 1017.4 |
| 20260506093110 | 59 | 311 | 0.0 | 0.0 | 0.00 | 0.00 | 0.00 | 83 | 1017.6 |
| 20260506092110 | 59 | 319 | 0.0 | 0.0 | 0.00 | 0.00 | 0.00 | 83 | 1017.7 |
| 20260506091110 | 59 | 327 | 0.0 | 0.0 | 0.00 | 0.00 | 0.00 | 83 | 1017.7 |
| 20260506090109 | 59 | 324 | 0.0 | 0.0 | 0.00 | 0.00 | 0.00 | 82 | 1017.6 |
| 20260506085109 | 59 | 6 | 0.0 | 1.0 | 0.00 | 0.00 | 0.00 | 82 | 1017.6 |
| 20260506084109 | 59 | 320 | 0.0 | 0.0 | 0.00 | 0.00 | 0.00 | 81 | 1017.6 |
| 20260506083109 | 60 | 327 | 0.0 | 0.0 | 0.00 | 0.00 | 0.00 | 81 | 1017.8 |
| 20260506082111 | 60 | 330 | 0.0 | 0.0 | 0.00 | 0.00 | 0.00 | 80 | 1017.6 |
| 20260506081110 | 60 | 272 | 0.0 | 1.0 | 0.00 | 0.00 | 0.00 | 79 | 1017.7 |
| 20260506080110 | 60 | 298 | 1.0 | 2.0 | 0.00 | 0.00 | 0.00 | 79 | 1017.7 |
| 20260506073109 | 61 | 334 | 0.0 | 0.0 | 0.00 | 0.00 | 0.00 | 77 | 1017.4 |
| 20260506072110 | 61 | 350 | 1.0 | 1.0 | 0.00 | 0.00 | 0.00 | 76 | 1017.5 |
| 20260506071111 | 61 | 322 | 0.0 | 1.0 | 0.00 | 0.00 | 0.00 | 76 | 1017.3 |
| 20260506070110 | 62 | 322 | 0.0 | 0.0 | 0.00 | 0.00 | 0.00 | 74 | 1017.3 |
| 20260506062110 | 63 | 329 | 1.0 | 1.0 | 0.00 | 0.00 | 0.00 | 71 | 1017.3 |
| 20260506061109 | 63 | 311 | 0.0 | 0.0 | 0.00 | 0.00 | 0.00 | 71 | 1017.2 |
| 20260506060109 | 63 | 325 | 0.0 | 0.0 | 0.00 | 0.00 | 0.00 | 70 | 1016.9 |
| 20260506051110 | 62 | 298 | 0.0 | 0.0 | 0.00 | 0.00 | 0.00 | 69 | 1017.4 |
| 20260506050111 | 62 | 319 | 0.0 | 0.0 | 0.00 | 0.00 | 0.00 | 69 | 1017.6 |
| 20260506045110 | 63 | 328 | 1.0 | 1.0 | 0.00 | 0.00 | 0.00 | 68 | 1017.4 |
| 20260506044109 | 63 | 314 | 0.0 | 0.0 | 0.00 | 0.00 | 0.00 | 68 | 1017.4 |
| 20260506043110 | 63 | 322 | 0.0 | 0.0 | 0.00 | 0.00 | 0.00 | 67 | 1017.8 |
| 20260506042110 | 62 | 312 | 2.0 | 3.0 | 0.00 | 0.00 | 0.00 | 69 | 1017.4 |
| 20260506041110 | 62 | 10 | 0.0 | 1.0 | 0.00 | 0.00 | 0.00 | 69 | 1017.4 |